TimeHST,TemperatureF,Dew PointF,Humidity,Sea Level PressureIn,VisibilityMPH,Wind Direction,Wind SpeedMPH,Gust SpeedMPH,PrecipitationIn,Events,Conditions,WindDirDegrees,DateUTC
12:08 AM,71.6,68.0,88,30.02,10.0,ENE,5.8,-,N/A,,Light Drizzle,70,2013-09-19 10:08:00
12:38 AM,71.6,68.0,88,30.01,10.0,ENE,1.2,-,N/A,,Partly Cloudy,70,2013-09-19 10:38:00
12:58 AM,70.2,67.1,90,29.98,10.0,Variable,2.3,-,0.02,,Clear,0,2013-09-19 10:58:00
1:58 AM,69.3,66.9,92,29.97,10.0,SSW,2.3,-,N/A,,Partly Cloudy,210,2013-09-19 11:58:00
2:58 AM,68.4,66.0,92,29.96,10.0,WNW,2.3,-,N/A,,Clear,300,2013-09-19 12:58:00
3:58 AM,67.6,65.5,93,29.95,10.0,WNW,2.3,-,N/A,,Clear,290,2013-09-19 13:58:00
4:58 AM,67.1,64.8,92,29.96,10.0,WNW,4.6,-,N/A,,Clear,290,2013-09-19 14:58:00
5:58 AM,67.6,64.9,91,29.98,10.0,West,4.6,-,N/A,,Clear,280,2013-09-19 15:58:00
6:58 AM,67.8,65.1,91,30.00,10.0,WNW,4.6,-,N/A,,Mostly Cloudy,290,2013-09-19 16:58:00
7:13 AM,69.8,66.2,88,30.02,10.0,WNW,5.8,-,N/A,,Mostly Cloudy,290,2013-09-19 17:13:00
7:58 AM,73.9,68.5,83,30.01,10.0,Variable,2.3,-,N/A,,Clear,0,2013-09-19 17:58:00
8:58 AM,77.0,66.2,69,30.02,10.0,NNE,5.8,-,N/A,,Clear,30,2013-09-19 18:58:00
9:58 AM,79.5,65.7,62,30.03,10.0,ENE,11.5,-,N/A,,Partly Cloudy,60,2013-09-19 19:58:00
10:58 AM,81.5,64.6,56,30.03,10.0,NE,9.2,-,N/A,,Mostly Cloudy,40,2013-09-19 20:58:00
11:58 AM,81.9,64.4,55,30.02,10.0,NE,8.1,18.4,N/A,,Partly Cloudy,40,2013-09-19 21:58:00
12:58 PM,82.9,64.2,53,30.00,10.0,ENE,15.0,19.6,N/A,,Partly Cloudy,60,2013-09-19 22:58:00
1:58 PM,82.8,64.9,55,29.98,10.0,East,11.5,20.7,N/A,,Clear,80,2013-09-19 23:58:00
2:58 PM,83.1,64.4,53,29.98,10.0,East,13.8,18.4,N/A,,Clear,90,2013-09-20 00:58:00
3:58 PM,82.8,66.0,57,29.98,10.0,NE,13.8,20.7,N/A,,Partly Cloudy,50,2013-09-20 01:58:00
4:58 PM,80.1,65.7,61,29.99,10.0,East,12.7,-,N/A,,Clear,80,2013-09-20 02:58:00
5:58 PM,78.4,65.7,65,29.99,10.0,Variable,4.6,-,N/A,,Clear,0,2013-09-20 03:58:00
6:58 PM,75.4,65.5,71,30.01,10.0,Variable,2.3,-,N/A,,Clear,0,2013-09-20 04:58:00
7:58 PM,75.4,66.0,73,30.01,10.0,ENE,5.8,-,N/A,,Clear,60,2013-09-20 05:58:00
8:58 PM,73.2,64.9,75,30.03,10.0,West,2.3,-,N/A,,Clear,270,2013-09-20 06:58:00
9:48 PM,71.6,66.2,83,30.07,10.0,NNE,3.5,-,N/A,,Mostly Cloudy,30,2013-09-20 07:48:00
9:53 PM,73.4,66.2,78,30.07,10.0,Variable,4.6,-,N/A,,Mostly Cloudy,0,2013-09-20 07:53:00
9:58 PM,73.4,66.0,78,30.04,10.0,ENE,4.6,-,N/A,,Scattered Clouds,70,2013-09-20 07:58:00
10:03 PM,75.2,66.2,73,30.07,10.0,East,6.9,-,N/A,,Scattered Clouds,80,2013-09-20 08:03:00
10:58 PM,70.7,64.9,82,30.04,10.0,West,3.5,-,N/A,,Partly Cloudy,270,2013-09-20 08:58:00
11:58 PM,71.2,64.9,80,30.03,10.0,Variable,3.5,-,N/A,,Clear,0,2013-09-20 09:58:00